| time (UTC) | temp F | wind direction | speed MPH | gust MPH | rain 1hr in | rain 24hr in | rain mn in | humidity % | barometer mb |
| 20260506175532 | 73 | 137 | 3.0 | 5.0 | 0.00 | 0.00 | 0.00 | 40 | 1015.9 |
| 20260506174533 | 73 | 144 | 3.0 | 4.0 | 0.00 | 0.00 | 0.00 | 39 | 1016.0 |
| 20260506173532 | 71 | 140 | 3.0 | 4.0 | 0.00 | 0.00 | 0.00 | 41 | 1015.9 |
| 20260506172533 | 72 | 137 | 3.0 | 5.0 | 0.00 | 0.00 | 0.00 | 40 | 1015.9 |
| 20260506171532 | 74 | 155 | 3.0 | 4.0 | 0.00 | 0.00 | 0.00 | 39 | 1016.0 |
| 20260506170551 | 72 | 139 | 2.0 | 4.0 | 0.00 | 0.00 | 0.00 | 42 | 1015.9 |
| 20260506165532 | 71 | 140 | 3.0 | 4.0 | 0.00 | 0.00 | 0.00 | 42 | 1015.7 |
| 20260506164533 | 69 | 117 | 3.0 | 4.0 | 0.00 | 0.00 | 0.00 | 43 | 1015.7 |
| 20260506163532 | 70 | 152 | 2.0 | 3.0 | 0.00 | 0.00 | 0.00 | 44 | 1015.6 |
| 20260506162532 | 69 | 157 | 2.0 | 4.0 | 0.00 | 0.00 | 0.00 | 44 | 1016.7 |
| 20260506161532 | 67 | 138 | 3.0 | 4.0 | 0.00 | 0.00 | 0.00 | 45 | 1016.6 |
| 20260506160532 | 67 | 132 | 3.0 | 3.0 | 0.00 | 0.00 | 0.00 | 45 | 1016.6 |
| 20260506155552 | 68 | 153 | 3.0 | 4.0 | 0.00 | 0.00 | 0.00 | 44 | 1016.8 |
| 20260506154532 | 67 | 136 | 2.0 | 3.0 | 0.00 | 0.00 | 0.00 | 45 | 1016.7 |
| 20260506153532 | 66 | 127 | 2.0 | 5.0 | 0.00 | 0.00 | 0.00 | 46 | 1016.7 |
| 20260506152532 | 66 | 141 | 3.0 | 4.0 | 0.00 | 0.00 | 0.00 | 47 | 1016.8 |
| 20260506151532 | 64 | 133 | 3.0 | 4.0 | 0.00 | 0.00 | 0.00 | 48 | 1016.7 |
| 20260506150532 | 62 | 169 | 1.0 | 3.0 | 0.00 | 0.00 | 0.00 | 51 | 1016.6 |
| 20260506145552 | 60 | 343 | 1.0 | 3.0 | 0.00 | 0.00 | 0.00 | 52 | 1016.5 |
| 20260506144552 | 60 | 159 | 0.0 | 2.0 | 0.00 | 0.00 | 0.00 | 53 | 1016.8 |
| 20260506143552 | 58 | 169 | 1.0 | 3.0 | 0.00 | 0.00 | 0.00 | 56 | 1016.7 |
| 20260506142532 | 58 | 149 | 2.0 | 3.0 | 0.00 | 0.00 | 0.00 | 59 | 1016.7 |
| 20260506141532 | 57 | 163 | 1.0 | 3.0 | 0.00 | 0.00 | 0.00 | 61 | 1016.7 |
| 20260506140612 | 55 | 0.0 | 0.0 | 0.00 | 0.00 | 0.00 | 65 | 1016.6 | |
| 20260506135532 | 54 | 158 | 1.0 | 2.0 | 0.00 | 0.00 | 0.00 | 71 | 1016.6 |
| 20260506134532 | 53 | 0.0 | 0.0 | 0.00 | 0.00 | 0.00 | 75 | 1016.6 | |
| 20260506133532 | 53 | 0.0 | 0.0 | 0.00 | 0.00 | 0.00 | 76 | 1016.6 | |
| 20260506132532 | 53 | 0.0 | 0.0 | 0.00 | 0.00 | 0.00 | 74 | 1016.6 | |
| 20260506131612 | 53 | 0.0 | 0.0 | 0.00 | 0.00 | 0.00 | 73 | 1016.6 | |
| 20260506130532 | 52 | 180 | 0.0 | 2.0 | 0.00 | 0.00 | 0.00 | 74 | 1016.7 |
| 20260506125552 | 52 | 251 | 1.0 | 3.0 | 0.00 | 0.00 | 0.00 | 74 | 1016.7 |
| 20260506124532 | 52 | 0.0 | 0.0 | 0.00 | 0.00 | 0.00 | 73 | 1016.7 | |
| 20260506123532 | 53 | 0.0 | 0.0 | 0.00 | 0.00 | 0.00 | 72 | 1016.7 | |
| 20260506122532 | 52 | 0.0 | 0.0 | 0.00 | 0.00 | 0.00 | 72 | 1016.7 | |
| 20260506121532 | 53 | 0.0 | 0.0 | 0.00 | 0.00 | 0.00 | 71 | 1016.7 | |
| 20260506120532 | 53 | 0.0 | 0.0 | 0.00 | 0.00 | 0.00 | 70 | 1016.7 | |
| 20260506115532 | 53 | 0.0 | 0.0 | 0.00 | 0.00 | 0.00 | 70 | 1015.6 | |
| 20260506114532 | 53 | 205 | 1.0 | 2.0 | 0.00 | 0.00 | 0.00 | 70 | 1015.6 |
| 20260506113532 | 54 | 0.0 | 0.0 | 0.00 | 0.00 | 0.00 | 69 | 1015.7 | |
| 20260506112532 | 54 | 0.0 | 0.0 | 0.00 | 0.00 | 0.00 | 69 | 1015.7 | |
| 20260506111532 | 54 | 0.0 | 0.0 | 0.00 | 0.00 | 0.00 | 68 | 1015.7 | |
| 20260506110532 | 54 | 246 | 2.0 | 2.0 | 0.00 | 0.00 | 0.00 | 69 | 1015.7 |
| 20260506105532 | 54 | 0.0 | 0.0 | 0.00 | 0.00 | 0.00 | 69 | 1015.7 | |
| 20260506104532 | 55 | 0.0 | 0.0 | 0.00 | 0.00 | 0.00 | 67 | 1014.6 | |
| 20260506103533 | 55 | 0.0 | 0.0 | 0.00 | 0.00 | 0.00 | 66 | ||
| 20260506061532 | 64 | 272 | 4.0 | 6.0 | 0.00 | 0.00 | 0.00 | 40 | 1014.4 |
| 20260506060531 | 64 | 265 | 3.0 | 6.0 | 0.00 | 0.00 | 0.00 | 39 | 1014.3 |
| 20260506050531 | 65 | 279 | 4.0 | 5.0 | 0.00 | 0.00 | 0.00 | 39 | 1014.2 |
| 20260506044532 | 64 | 260 | 3.0 | 4.0 | 0.00 | 0.00 | 0.00 | 41 | 1014.0 |
| 20260506043532 | 63 | 262 | 2.0 | 5.0 | 0.00 | 0.00 | 0.00 | 42 | 1013.9 |
| 20260506042611 | 65 | 259 | 1.0 | 2.0 | 0.00 | 0.00 | 0.00 | 42 | 1013.8 |
| 20260506041532 | 65 | 276 | 3.0 | 5.0 | 0.00 | 0.00 | 0.00 | 39 | 1013.8 |
| 20260506040531 | 64 | 277 | 3.0 | 4.0 | 0.00 | 0.00 | 0.00 | 43 | 1012.7 |
| 20260506035532 | 64 | 238 | 2.0 | 3.0 | 0.00 | 0.00 | 0.00 | 43 | 1012.6 |
| 20260506034531 | 65 | 262 | 2.0 | 3.0 | 0.00 | 0.00 | 0.00 | 43 | 1012.4 |
| 20260506033533 | 65 | 267 | 2.0 | 3.0 | 0.00 | 0.00 | 0.00 | 43 | 1012.4 |
| 20260506032532 | 66 | 256 | 2.0 | 3.0 | 0.00 | 0.00 | 0.00 | 42 | 1012.4 |
| 20260506031532 | 67 | 238 | 2.0 | 2.0 | 0.00 | 0.00 | 0.00 | 40 | 1012.3 |
| 20260506030532 | 68 | 270 | 2.0 | 3.0 | 0.00 | 0.00 | 0.00 | 39 | 1012.2 |
| 20260506025532 | 69 | 236 | 2.0 | 2.0 | 0.00 | 0.00 | 0.00 | 38 | 1012.4 |
| 20260506024531 | 70 | 246 | 2.0 | 3.0 | 0.00 | 0.00 | 0.00 | 37 | 1012.3 |
| 20260506023532 | 72 | 0.0 | 0.0 | 0.00 | 0.00 | 0.00 | 35 | 1012.3 | |
| 20260506022531 | 73 | 0.0 | 0.0 | 0.00 | 0.00 | 0.00 | 32 | 1012.3 | |
| 20260506021532 | 74 | 0.0 | 0.0 | 0.00 | 0.00 | 0.00 | 29 | 1012.4 | |
| 20260506020531 | 75 | 0.0 | 0.0 | 0.00 | 0.00 | 0.00 | 28 | 1012.3 | |
| 20260506015533 | 76 | 0.0 | 0.0 | 0.00 | 0.00 | 0.00 | 27 | 1012.3 | |
| 20260506014531 | 77 | 0.0 | 0.0 | 0.00 | 0.00 | 0.00 | 26 | 1012.5 | |
| 20260506013553 | 77 | 147 | 2.0 | 5.0 | 0.00 | 0.00 | 0.00 | 24 | 1012.5 |
| 20260506012531 | 78 | 192 | 1.0 | 3.0 | 0.00 | 0.00 | 0.00 | 25 | 1012.5 |
| 20260506011532 | 78 | 139 | 2.0 | 4.0 | 0.00 | 0.00 | 0.00 | 24 | 1012.6 |
| 20260506010531 | 78 | 145 | 3.0 | 6.0 | 0.00 | 0.00 | 0.00 | 24 | 1013.5 |
| 20260506005532 | 79 | 203 | 1.0 | 3.0 | 0.00 | 0.00 | 0.00 | 24 | 1013.6 |
| 20260506004532 | 79 | 133 | 3.0 | 6.0 | 0.00 | 0.00 | 0.00 | 24 | 1013.6 |
| 20260506003553 | 80 | 263 | 2.0 | 4.0 | 0.00 | 0.00 | 0.00 | 24 | 1013.6 |
| 20260506002611 | 80 | 155 | 3.0 | 5.0 | 0.00 | 0.00 | 0.00 | 23 | 1013.7 |
| 20260506001552 | 81 | 137 | 4.0 | 6.0 | 0.00 | 0.00 | 0.00 | 22 | 1013.8 |
| 20260506000530 | 83 | 181 | 3.0 | 6.0 | 0.00 | 0.00 | 0.00 | 22 | 1013.9 |
| 20260505235533 | 82 | 151 | 3.0 | 6.0 | 0.00 | 0.00 | 0.00 | 23 | 1013.8 |
| 20260505234530 | 81 | 167 | 3.0 | 5.0 | 0.00 | 0.00 | 0.00 | 23 | 1013.8 |
| 20260505233533 | 81 | 124 | 4.0 | 5.0 | 0.00 | 0.00 | 0.00 | 23 | 1013.8 |
| 20260505232530 | 82 | 140 | 4.0 | 6.0 | 0.00 | 0.00 | 0.00 | 23 | 1013.8 |
| 20260505231533 | 82 | 147 | 3.0 | 5.0 | 0.00 | 0.00 | 0.00 | 23 | 1013.9 |
| 20260505230530 | 82 | 161 | 3.0 | 6.0 | 0.00 | 0.00 | 0.00 | 22 | 1015.0 |
| 20260505225530 | 81 | 158 | 3.0 | 5.0 | 0.00 | 0.00 | 0.00 | 23 | 1014.9 |
| 20260505224529 | 82 | 148 | 4.0 | 7.0 | 0.00 | 0.00 | 0.00 | 22 | 1015.0 |
| 20260505223529 | 82 | 141 | 4.0 | 6.0 | 0.00 | 0.00 | 0.00 | 23 | 1014.9 |
| 20260505222529 | 81 | 141 | 4.0 | 6.0 | 0.00 | 0.00 | 0.00 | 23 | 1014.9 |
| 20260505221529 | 82 | 138 | 4.0 | 6.0 | 0.00 | 0.00 | 0.00 | 23 | 1014.9 |
| 20260505220529 | 82 | 148 | 3.0 | 7.0 | 0.00 | 0.00 | 0.00 | 23 | 1015.0 |
| 20260505215530 | 82 | 146 | 5.0 | 6.0 | 0.00 | 0.00 | 0.00 | 23 | 1015.0 |
| 20260505214529 | 81 | 148 | 3.0 | 5.0 | 0.00 | 0.00 | 0.00 | 23 | 1015.1 |
| 20260505213530 | 81 | 171 | 4.0 | 9.0 | 0.00 | 0.00 | 0.00 | 23 | 1016.2 |
| 20260505212549 | 80 | 154 | 4.0 | 6.0 | 0.00 | 0.00 | 0.00 | 24 | 1016.2 |
| 20260505211529 | 80 | 149 | 5.0 | 7.0 | 0.00 | 0.00 | 0.00 | 23 | 1016.2 |
| 20260505210529 | 80 | 137 | 4.0 | 6.0 | 0.00 | 0.00 | 0.00 | 23 | 1016.0 |
| 20260505205529 | 79 | 139 | 4.0 | 6.0 | 0.00 | 0.00 | 0.00 | 24 | 1016.3 |
| 20260505204549 | 80 | 143 | 4.0 | 7.0 | 0.00 | 0.00 | 0.00 | 23 | 1016.3 |
| 20260505203529 | 80 | 133 | 4.0 | 7.0 | 0.00 | 0.00 | 0.00 | 23 | 1016.5 |
| 20260505202549 | 80 | 156 | 3.0 | 5.0 | 0.00 | 0.00 | 0.00 | 23 | 1016.5 |
| 20260505201549 | 80 | 208 | 3.0 | 5.0 | 0.00 | 0.00 | 0.00 | 23 | 1017.7 |
| 20260505200529 | 80 | 144 | 3.0 | 4.0 | 0.00 | 0.00 | 0.00 | 22 | 1017.6 |
| 20260505195549 | 80 | 169 | 3.0 | 5.0 | 0.00 | 0.00 | 0.00 | 23 | 1017.6 |
| 20260505194529 | 79 | 129 | 3.0 | 5.0 | 0.00 | 0.00 | 0.00 | 23 | 1017.8 |
| 20260505193549 | 76 | 161 | 3.0 | 5.0 | 0.00 | 0.00 | 0.00 | 26 | 1017.5 |
| 20260505192528 | 76 | 154 | 3.0 | 5.0 | 0.00 | 0.00 | 0.00 | 27 | 1017.6 |
| 20260505191528 | 76 | 163 | 3.0 | 8.0 | 0.00 | 0.00 | 0.00 | 28 | 1017.7 |
| 20260505190528 | 75 | 158 | 3.0 | 4.0 | 0.00 | 0.00 | 0.00 | 29 | 1017.7 |
| 20260505185528 | 75 | 118 | 3.0 | 5.0 | 0.00 | 0.00 | 0.00 | 30 | 1017.7 |
| 20260505184528 | 75 | 142 | 4.0 | 5.0 | 0.00 | 0.00 | 0.00 | 30 | 1017.8 |
| 20260505183528 | 74 | 148 | 2.0 | 5.0 | 0.00 | 0.00 | 0.00 | 32 | 1018.9 |
| 20260505182528 | 74 | 122 | 3.0 | 5.0 | 0.00 | 0.00 | 0.00 | 31 | 1018.9 |
| 20260505181528 | 73 | 131 | 4.0 | 6.0 | 0.00 | 0.00 | 0.00 | 31 | 1018.9 |
| 20260505180528 | 73 | 135 | 3.0 | 5.0 | 0.00 | 0.00 | 0.00 | 32 | 1019.0 |